Wind_Speed
35 33 30 29 28 29 29 30 31 31 32 34 36 39 41 42 42 41 42 41 40 39 38 38 38 37 37 39 40 39 37 35 32 31 29 29 27 26
30 28 27 27 27 27 29 30 30 31 33 35 36 37 38 40 40 39 39 41 41 40 39 39 39 38 38 36 36 38 37 36 35 32 30 29 28 28
27 28 29 29 28 29 30 31 31 31 33 34 34 34 33 35 37 37 39 40 40 39 38 38 39 38 38 37 36 35 36 36 35 32 30 29 28 29
28 29 29 29 30 32 33 34 35 35 35 35 34 33 31 29 30 33 35 36 37 38 39 38 38 38 38 37 37 36 35 33 33 32 30 30 29 30
28 29 30 31 32 33 34 36 38 40 39 39 38 35 33 30 28 28 30 32 33 34 33 33 34 35 35 35 36 37 36 32 30 30 31 31 31 31
29 30 31 32 33 34 35 37 39 40 41 41 40 38 35 33 30 26 24 25 28 30 30 29 30 30 29 30 32 34 32 30 30 30 32 32 32 33
30 31 31 32 33 34 35 36 37 38 39 39 39 37 35 34 32 29 25 22 21 24 27 27 26 25 26 27 29 29 28 27 29 30 32 33 32 31
29 30 31 32 33 33 34 34 34 35 35 35 34 34 33 33 32 31 28 25 21 19 20 22 21 23 24 24 26 27 29 29 28 28 27 26 26 26
26 29 30 31 31 32 32 32 33 34 34 33 33 32 31 31 32 33 31 30 28 24 20 21 21 19 21 22 22 23 27 29 28 26 26 26 26 26
23 25 27 28 30 30 30 31 32 33 33 34 34 34 33 32 31 32 33 33 33 31 27 23 23 23 24 25 26 24 24 25 26 26 27 27 27 28
22 23 25 26 27 27 28 29 31 32 33 34 36 36 37 37 34 33 33 34 36 36 34 32 28 23 23 27 28 29 28 26 26 27 28 28 28 29
20 21 21 21 22 23 24 26 28 30 31 33 34 36 37 38 37 35 34 34 34 35 37 36 35 32 27 24 26 29 29 29 29 29 30 30 28 29
15 14 15 17 19 22 26 29 31 33 34 35 36 37 38 39 39 37 36 35 36 36 36 34 35 36 35 32 28 28 30 30 31 32 33 32 30 30
12 14 16 19 22 25 28 31 32 33 33 33 35 37 39 40 41 40 38 37 37 36 35 34 33 34 36 38 39 35 31 33 35 36 36 37 36 35
15 17 19 21 23 23 24 26 27 28 28 28 28 29 32 35 38 39 39 37 36 36 37 36 34 33 34 37 39 40 40 37 35 39 42 43 43 41
16 17 19 20 21 21 23 24 24 23 23 23 22 22 24 27 30 33 35 37 37 37 36 36 35 36 36 35 36 36 36 39 41 37 37 42 45 46
14 17 19 20 21 22 23 23 22 21 20 20 20 21 21 22 24 26 30 32 34 35 35 35 35 35 35 34 34 34 36 37 40 43 42 39 39 41
15 17 18 19 22 24 24 23 22 21 22 22 22 22 22 23 23 24 26 28 30 32 33 35 35 34 34 34 34 34 35 37 39 41 43 43 42 42
14 16 17 19 22 24 25 24 22 21 22 22 21 21 22 23 23 23 24 26 27 29 31 32 34 35 35 34 35 35 35 36 38 40 42 44 45 45
13 15 16 19 22 25 25 25 24 23 22 22 21 20 20 21 21 21 22 24 26 27 29 31 33 36 37 37 36 36 36 36 37 38 40 41 43 45
12 14 16 19 23 25 25 25 26 25 24 24 22 21 20 20 21 21 22 23 24 25 27 28 31 34 37 39 40 40 39 39 39 38 38 38 39 40
12 13 16 19 23 25 25 26 27 28 27 25 24 23 23 23 23 23 24 24 25 25 26 26 27 28 31 34 37 39 40 41 41 40 39 38 36 36
12 13 16 19 22 24 26 27 28 30 30 29 27 25 25 25 25 25 25 25 25 26 27 27 27 27 27 29 32 35 38 41 43 44 42 41 39 38
Wind_Direction
257 260 260 261 262 263 263 264 266 270 273 275 277 278 279 278 276 273 270 268 266 264 261 257 256 256 258 258 253 248 245 246 246 244 244 243 242 241
253 254 256 258 260 261 262 265 269 273 275 277 278 278 278 276 273 272 268 266 265 264 259 258 257 256 258 260 260 251 246 245 242 241 242 241 241 238
252 255 256 257 261 263 264 265 268 272 275 279 281 283 281 279 275 271 267 264 261 260 258 256 257 257 258 260 264 258 250 244 239 235 236 237 238 237
256 258 259 262 264 265 266 267 269 270 273 277 281 283 284 286 282 272 266 262 260 259 258 257 256 257 259 261 261 257 248 241 237 233 231 233 234 236
259 261 263 265 266 267 268 269 270 270 271 274 277 280 282 285 287 278 266 260 256 255 256 257 257 257 258 258 256 251 244 238 235 233 231 230 230 234
264 266 267 268 270 270 270 270 270 270 270 271 274 277 279 281 286 288 279 265 256 249 250 253 255 254 253 252 248 243 237 230 228 228 230 229 230 237
269 270 271 272 273 273 273 272 272 272 272 273 275 276 277 277 279 283 286 279 269 255 250 248 249 246 247 246 242 235 228 226 226 228 229 230 234 236
271 272 273 274 274 274 275 276 276 276 276 277 277 277 275 273 272 274 277 276 274 269 258 246 246 242 239 240 237 234 231 229 228 228 228 228 229 232
270 272 274 275 277 278 279 279 279 278 278 280 280 279 277 273 270 268 267 267 266 266 265 247 237 237 235 234 236 236 231 227 227 231 234 233 231 231
273 275 276 278 280 282 283 283 283 281 281 281 281 280 277 274 270 267 265 263 263 263 261 251 237 232 235 237 237 237 233 228 227 229 230 231 230 228
276 278 279 281 283 285 286 285 284 284 283 283 283 283 281 277 273 267 262 260 259 257 258 256 249 240 236 233 230 229 230 231 231 230 228 228 231 231
279 281 284 286 288 289 289 288 288 287 285 284 282 280 278 276 274 270 265 261 260 259 257 257 257 254 250 240 230 221 222 226 230 232 232 232 235 235
281 285 289 291 291 291 290 290 289 288 286 285 283 281 279 276 273 270 268 264 260 259 259 257 256 256 255 250 242 229 223 227 230 232 233 235 237 238
281 284 288 293 295 297 297 296 293 291 288 286 284 283 280 278 276 273 269 265 261 259 259 257 255 253 252 253 252 247 237 228 226 227 231 236 239 240
278 284 292 299 302 306 307 304 299 294 291 288 287 286 284 280 277 274 271 268 264 260 258 257 254 252 252 252 253 253 251 246 236 232 234 236 237 236
279 288 300 309 314 316 315 312 307 301 297 294 293 292 291 287 281 276 272 269 266 263 261 259 256 254 254 255 254 251 250 249 249 245 241 239 237 233
287 302 312 319 323 322 319 314 310 306 304 304 303 302 299 295 288 281 275 272 270 268 265 263 262 258 255 253 251 249 247 246 246 248 248 247 243 238
294 309 320 327 332 332 328 320 311 304 303 304 305 305 304 301 296 289 281 276 272 269 267 265 263 260 257 255 251 248 246 246 245 246 246 247 248 249
299 315 326 333 337 339 338 332 321 309 305 306 307 306 305 304 301 295 288 281 276 271 267 264 263 262 259 256 254 253 249 246 244 243 245 246 248 249
304 320 329 336 339 339 340 339 333 323 316 315 314 311 308 307 305 302 296 289 281 275 270 265 263 262 261 259 256 252 251 249 246 244 243 244 246 248
306 322 332 338 340 341 341 341 339 335 329 325 322 318 312 309 307 305 302 297 291 285 278 272 267 263 261 259 257 255 253 250 246 243 243 244 246 245
305 322 332 336 338 340 342 341 340 339 336 332 326 322 316 311 306 303 301 299 297 292 287 282 276 270 264 260 257 256 253 248 244 242 240 240 241 241
299 316 328 332 334 338 341 342 340 338 336 333 328 323 319 315 310 304 299 298 298 297 293 287 282 277 272 265 260 256 254 250 246 243 242 240 238 238
Height
5784 5785 5785 5785 5785 5785 5784 5785 5784 5782 5780 5778 5775 5773 5772 5770 5769 5768 5766 5766 5766 5767 5767 5767 5767 5768 5770 5772 5774 5776 5779 5781 5784 5786 5789 5792 5794 5797
5775 5775 5776 5776 5775 5775 5776 5776 5775 5773 5771 5769 5767 5765 5762 5760 5758 5757 5755 5754 5756 5756 5757 5758 5758 5759 5761 5762 5764 5766 5769 5771 5774 5778 5781 5784 5787 5790
5766 5767 5767 5767 5766 5766 5766 5766 5765 5764 5762 5760 5758 5756 5753 5750 5747 5746 5744 5744 5745 5746 5746 5748 5749 5750 5751 5754 5755 5757 5759 5762 5764 5768 5772 5776 5779 5783
5757 5758 5758 5758 5758 5758 5757 5757 5756 5755 5754 5752 5749 5747 5745 5742 5738 5736 5735 5734 5734 5735 5736 5737 5739 5741 5742 5744 5746 5748 5751 5753 5756 5758 5762 5767 5771 5775
5749 5749 5749 5749 5749 5749 5748 5747 5747 5747 5745 5743 5740 5738 5736 5734 5732 5729 5726 5725 5725 5725 5726 5728 5729 5731 5733 5735 5737 5739 5742 5745 5748 5750 5754 5758 5762 5766
5741 5740 5740 5741 5740 5740 5739 5739 5738 5737 5736 5734 5732 5730 5729 5728 5725 5722 5719 5717 5716 5717 5717 5719 5720 5722 5724 5726 5729 5732 5734 5737 5740 5743 5747 5750 5754 5758
5732 5732 5732 5732 5732 5732 5731 5730 5729 5728 5727 5725 5723 5722 5721 5720 5719 5716 5714 5711 5709 5709 5710 5711 5712 5714 5716 5718 5721 5724 5727 5730 5733 5736 5739 5743 5746 5750
5724 5724 5724 5723 5723 5723 5723 5721 5720 5719 5718 5715 5714 5712 5711 5711 5710 5710 5708 5706 5703 5703 5703 5704 5705 5706 5708 5711 5713 5716 5720 5722 5725 5729 5732 5735 5739 5743
5717 5717 5716 5716 5715 5714 5713 5712 5711 5709 5708 5706 5704 5703 5702 5702 5702 5702 5701 5700 5698 5697 5697 5697 5698 5699 5701 5703 5706 5709 5712 5716 5719 5722 5725 5729 5733 5737
5711 5710 5710 5709 5708 5706 5705 5704 5702 5701 5699 5697 5695 5693 5693 5693 5693 5693 5693 5693 5692 5691 5691 5691 5691 5693 5695 5697 5699 5702 5705 5709 5713 5716 5719 5722 5726 5730
5704 5704 5703 5702 5700 5698 5697 5696 5694 5691 5689 5687 5685 5684 5683 5683 5684 5684 5684 5684 5684 5683 5683 5684 5685 5686 5688 5689 5691 5694 5697 5702 5706 5710 5713 5716 5719 5723
5699 5698 5697 5696 5694 5692 5691 5688 5685 5682 5680 5677 5676 5675 5673 5673 5673 5673 5674 5675 5675 5674 5674 5676 5677 5679 5680 5682 5683 5685 5689 5693 5698 5702 5706 5709 5712 5716
5694 5694 5693 5691 5689 5687 5684 5681 5677 5674 5671 5668 5666 5664 5663 5662 5662 5662 5663 5664 5665 5665 5666 5667 5669 5671 5672 5674 5676 5679 5682 5685 5689 5693 5696 5700 5704 5708
5691 5690 5689 5687 5684 5681 5677 5673 5669 5666 5662 5660 5657 5654 5652 5651 5650 5651 5652 5653 5654 5655 5656 5658 5660 5662 5663 5665 5667 5671 5674 5678 5681 5684 5687 5690 5694 5698
5687 5685 5684 5681 5678 5674 5670 5666 5662 5658 5655 5651 5648 5645 5642 5640 5639 5639 5640 5642 5643 5645 5646 5648 5650 5652 5653 5655 5657 5660 5665 5668 5671 5675 5678 5681 5684 5687
5682 5680 5678 5675 5671 5667 5663 5659 5655 5651 5648 5644 5641 5638 5635 5632 5630 5628 5628 5629 5631 5633 5635 5637 5640 5642 5644 5646 5648 5651 5654 5657 5661 5663 5666 5670 5673 5675
5677 5675 5672 5669 5665 5661 5656 5652 5648 5645 5641 5638 5635 5631 5628 5626 5623 5621 5620 5619 5619 5621 5623 5625 5628 5631 5633 5636 5638 5640 5643 5646 5649 5652 5655 5658 5661 5663
5672 5669 5666 5662 5659 5654 5650 5646 5642 5638 5635 5632 5628 5625 5621 5619 5616 5614 5612 5611 5610 5610 5611 5613 5615 5618 5621 5624 5627 5629 5632 5634 5637 5640 5643 5646 5649 5651
5666 5663 5660 5657 5653 5649 5645 5640 5636 5632 5628 5625 5621 5618 5615 5612 5609 5607 5605 5603 5602 5601 5602 5603 5604 5605 5607 5611 5614 5616 5619 5622 5625 5628 5631 5633 5636 5639
5660 5658 5655 5652 5649 5644 5639 5635 5630 5626 5622 5618 5615 5612 5609 5607 5604 5601 5598 5596 5594 5593 5593 5593 5593 5593 5594 5597 5600 5603 5605 5609 5612 5615 5618 5620 5623 5626
5655 5653 5650 5647 5644 5640 5635 5630 5626 5621 5617 5613 5609 5606 5603 5601 5598 5595 5593 5590 5587 5585 5584 5583 5583 5583 5583 5584 5586 5588 5592 5595 5598 5602 5605 5608 5611 5614
5650 5648 5646 5643 5640 5636 5631 5626 5621 5617 5612 5608 5604 5601 5598 5595 5592 5589 5586 5583 5581 5578 5575 5574 5573 5572 5572 5572 5573 5575 5578 5581 5584 5588 5591 5595 5598 5601
5645 5644 5641 5639 5636 5632 5627 5622 5617 5613 5608 5604 5600 5596 5592 5588 5585 5582 5579 5577 5574 5571 5568 5565 5564 5562 5562 5561 5561 5562 5564 5566 5570 5574 5577 5581 5585 5589